Temp
18 18 19 19 19 19 20 20 21 21 21 22 23 23 24 25 25 25 25 26 26 25 25 23 22 22 23 24 24 25 31 31 30 31 30 29 29 27 25 25 25 24 25 23 20
18 18 18 19 19 19 19 20 21 21 21 22 23 24 24 25 25 25 26 27 26 26 23 24 24 23 26 25 27 30 32 31 31 32 31 30 29 27 27 26 25 23 23 21 20
17 18 18 19 19 19 19 20 21 21 21 22 22 23 24 25 25 27 27 27 26 25 24 24 25 25 28 28 28 30 31 31 31 31 30 30 29 28 29 29 27 25 23 21 20
17 18 18 18 19 19 19 20 21 21 21 22 22 23 24 25 29 26 27 27 26 24 24 24 25 28 29 30 29 31 30 30 30 29 30 30 29 29 28 27 26 25 23 21 20
17 17 18 18 18 19 19 20 20 21 22 22 22 23 24 25 27 26 27 26 25 24 25 26 28 27 30 30 29 31 30 30 30 30 30 29 29 29 28 26 25 23 22 21 21
16 17 17 18 18 18 19 19 20 21 21 22 22 23 22 27 26 26 26 26 24 24 25 26 27 26 28 29 30 29 30 30 30 30 30 30 29 29 27 25 24 23 23 22 22
16 16 17 18 18 18 19 19 20 20 21 22 22 22 22 27 26 26 26 24 24 25 26 26 25 27 28 29 28 29 31 31 30 30 30 30 29 29 28 26 25 24 24 23 23
15 16 16 17 18 18 19 19 20 20 21 22 22 22 25 25 25 25 22 23 23 24 25 25 25 27 28 28 30 31 31 30 30 30 29 29 30 31 28 27 26 25 24 24 23
15 15 16 17 18 18 19 19 20 20 21 21 21 21 27 25 24 23 23 24 24 24 25 25 26 28 28 31 31 30 29 29 29 30 30 30 30 31 28 28 28 27 25 24 24
14 15 16 17 17 18 19 19 20 19 19 20 21 22 24 26 24 23 24 25 25 25 26 27 28 31 31 31 28 29 30 29 29 30 30 30 30 32 30 29 29 28 26 25 25
14 15 15 16 17 18 19 19 19 18 17 25 25 25 24 23 23 23 24 25 26 26 29 28 30 30 31 30 30 29 29 30 30 30 29 30 31 32 31 29 29 29 28 26 24
14 15 15 16 17 18 18 19 20 19 24 22 22 22 22 23 25 25 24 27 27 28 30 29 30 32 31 30 30 30 30 30 30 29 29 30 30 32 32 31 29 29 28 27 24
14 15 15 16 17 18 18 18 20 20 24 24 23 23 24 23 27 26 25 27 29 29 30 30 32 32 30 30 30 31 30 30 30 30 29 28 30 31 32 31 30 29 29 28 27
14 15 15 16 17 17 17 19 19 19 26 27 24 24 23 25 27 27 25 28 29 30 30 31 31 30 30 30 30 30 30 30 29 29 30 29 30 32 32 32 32 31 29 29 28
14 14 15 15 16 16 17 19 19 19 26 27 24 23 25 26 27 26 26 27 29 30 30 30 30 30 30 31 30 30 30 30 29 30 30 30 30 33 31 32 33 32 31 30 29
14 15 15 16 17 17 18 18 19 24 26 26 25 25 25 26 28 26 26 27 29 30 29 31 30 31 31 32 31 31 30 30 30 30 30 30 30 32 33 33 33 33 30 30 29
14 15 16 16 15 17 18 18 24 25 27 26 27 27 28 28 28 28 27 27 28 28 28 30 30 31 30 30 30 30 31 30 30 30 30 30 29 32 34 34 33 33 31 29 29
15 16 17 17 16 17 17 22 24 27 28 28 28 28 27 29 29 28 28 28 29 30 30 29 28 30 31 31 30 30 31 30 28 29 31 30 30 32 34 34 33 32 31 29 28
15 16 16 17 17 16 19 23 26 27 28 28 27 27 27 28 29 28 29 29 30 31 30 30 30 32 31 31 31 30 29 31 30 31 30 32 32 34 34 34 34 33 32 30 28
15 13 13 16 16 15 21 23 26 26 26 27 27 28 28 28 27 28 29 30 30 30 31 31 29 31 30 31 30 30 31 30 31 28 28 31 30 32 33 33 34 34 33 32 29
15 16 14 15 15 17 22 25 25 25 25 27 27 28 29 29 28 29 30 30 31 31 30 31 30 31 30 29 30 29 29 30 31 31 29 30 32 34 33 34 34 34 33 33 30
13 20 14 15 19 21 23 25 24 26 24 27 26 27 28 29 29 29 30 30 30 31 29 31 31 30 29 31 32 32 31 32 30 30 31 30 31 35 35 35 33 32 32 32 30
16 16 12 12 21 22 23 25 24 25 26 26 27 27 27 28 28 29 30 30 30 30 30 31 29 29 30 30 30 30 31 32 33 33 31 30 31 35 35 35 34 34 32 30 29
13 19 16 15 19 22 24 23 24 24 25 25 26 26 27 28 28 29 29 28 28 30 27 30 31 30 30 30 31 29 30 31 31 31 31 31 32 33 34 34 34 33 31 30 28
14 19 16 20 21 22 24 24 24 24 24 24 25 26 27 28 28 29 30 28 28 24 27 31 29 31 31 31 32 31 31 31 31 31 31 32 32 34 34 34 34 32 31 30 29
13 15 15 18 19 21 17 23 24 25 24 25 25 27 27 27 29 28 29 29 29 27 28 31 30 30 30 31 32 31 32 32 32 32 32 32 32 34 34 33 33 33 33 31 29
9 10 12 16 20 21 23 24 24 24 23 24 25 26 26 27 24 25 26 28 29 30 30 30 30 29 29 31 31 29 31 32 32 32 32 31 33 34 34 34 33 33 33 32 30
Height
1524 1523 1523 1523 1522 1522 1521 1521 1521 1520 1520 1520 1520 1520 1520 1520 1520 1521 1521 1523 1522 1521 1522 1523 1524 1523 1523 1522 1520 1519 1507 1515 1515 1512 1519 1522 1523 1528 1531 1532 1535 1537 1537 1540 1547
1524 1523 1522 1522 1521 1521 1520 1520 1520 1519 1519 1519 1519 1519 1520 1520 1520 1520 1521 1521 1521 1522 1524 1525 1525 1524 1523 1522 1521 1516 1507 1513 1513 1512 1514 1520 1522 1528 1530 1532 1535 1538 1539 1543 1548
1522 1522 1521 1520 1520 1519 1519 1519 1518 1518 1517 1518 1518 1519 1519 1519 1520 1519 1518 1520 1521 1523 1526 1526 1526 1526 1522 1520 1519 1517 1512 1515 1515 1515 1517 1520 1523 1527 1526 1526 1529 1536 1539 1544 1548
1521 1521 1520 1519 1518 1518 1518 1518 1517 1517 1516 1517 1517 1518 1518 1519 1516 1516 1517 1519 1521 1524 1527 1526 1526 1524 1519 1516 1520 1514 1517 1518 1518 1519 1519 1521 1523 1525 1528 1530 1530 1534 1540 1544 1548
1521 1520 1519 1518 1517 1517 1517 1517 1516 1515 1515 1515 1516 1517 1518 1519 1518 1516 1516 1519 1521 1524 1527 1527 1524 1524 1517 1519 1520 1515 1516 1518 1518 1519 1520 1522 1524 1525 1528 1532 1533 1536 1541 1544 1548
1520 1519 1518 1517 1516 1516 1515 1515 1515 1514 1514 1514 1515 1516 1518 1517 1515 1516 1517 1519 1523 1526 1527 1527 1526 1525 1523 1521 1519 1520 1518 1517 1517 1519 1521 1522 1524 1526 1529 1532 1535 1538 1541 1543 1546
1519 1518 1517 1516 1515 1514 1513 1513 1513 1513 1513 1513 1514 1515 1517 1515 1513 1514 1516 1519 1524 1527 1527 1527 1527 1525 1524 1521 1522 1520 1516 1515 1519 1520 1521 1522 1524 1524 1528 1532 1535 1538 1541 1543 1545
1517 1516 1515 1514 1513 1512 1511 1511 1511 1512 1512 1512 1513 1514 1514 1511 1512 1513 1515 1520 1523 1526 1527 1527 1527 1526 1524 1522 1520 1516 1514 1519 1519 1520 1522 1525 1522 1518 1526 1529 1532 1535 1539 1541 1544
1515 1514 1513 1512 1511 1511 1510 1509 1509 1510 1511 1511 1513 1514 1510 1508 1511 1513 1516 1519 1523 1526 1526 1526 1527 1523 1522 1516 1516 1516 1524 1524 1522 1521 1522 1523 1519 1517 1523 1526 1528 1531 1535 1539 1542
1513 1512 1511 1510 1509 1509 1508 1508 1507 1508 1510 1511 1512 1516 1507 1507 1509 1511 1515 1520 1522 1524 1526 1526 1523 1517 1514 1514 1534 1524 1522 1523 1523 1521 1520 1518 1516 1512 1517 1521 1522 1526 1530 1534 1538
1510 1509 1509 1508 1507 1507 1507 1508 1511 1510 1507 1503 1503 1504 1503 1505 1507 1511 1514 1519 1521 1523 1518 1519 1518 1516 1510 1514 1516 1521 1521 1522 1516 1516 1521 1516 1511 1507 1508 1514 1516 1518 1522 1528 1532
1508 1507 1506 1505 1504 1504 1504 1507 1506 1505 1502 1500 1502 1503 1503 1504 1506 1510 1514 1516 1517 1516 1514 1518 1516 1504 1511 1515 1517 1517 1519 1519 1514 1518 1520 1512 1510 1502 1501 1503 1510 1512 1516 1520 1528
1506 1504 1504 1503 1502 1502 1501 1503 1503 1504 1501 1495 1497 1500 1502 1504 1501 1504 1509 1509 1510 1511 1511 1509 1503 1505 1513 1514 1517 1512 1516 1516 1519 1514 1514 1518 1507 1499 1493 1497 1501 1505 1508 1513 1518
1503 1502 1502 1501 1503 1500 1501 1500 1503 1504 1495 1484 1491 1493 1498 1501 1500 1500 1505 1507 1506 1505 1507 1506 1502 1510 1510 1511 1512 1516 1513 1515 1518 1520 1521 1515 1521 1493 1489 1492 1493 1495 1500 1504 1510
1500 1499 1499 1500 1499 1500 1500 1500 1503 1505 1498 1480 1488 1489 1491 1495 1491 1499 1502 1506 1501 1501 1504 1506 1506 1509 1510 1507 1510 1511 1511 1511 1515 1515 1516 1509 1516 1490 1489 1489 1484 1487 1490 1495 1502
1497 1496 1496 1496 1496 1497 1498 1501 1504 1501 1494 1477 1480 1484 1488 1490 1489 1494 1499 1504 1501 1499 1505 1498 1504 1502 1503 1503 1508 1509 1513 1511 1510 1511 1521 1512 1516 1493 1483 1485 1482 1484 1488 1491 1495
1493 1492 1492 1493 1496 1495 1498 1502 1498 1488 1471 1474 1473 1476 1477 1481 1484 1490 1494 1499 1498 1507 1506 1500 1500 1500 1502 1506 1508 1510 1507 1517 1521 1518 1517 1508 1515 1496 1480 1480 1481 1482 1486 1490 1492
1489 1487 1486 1488 1490 1493 1498 1499 1490 1465 1464 1465 1467 1470 1474 1472 1478 1482 1487 1493 1491 1489 1491 1502 1513 1497 1498 1497 1503 1506 1501 1512 1537 1525 1509 1504 1512 1488 1477 1479 1480 1482 1484 1488 1489
1484 1482 1481 1483 1487 1491 1497 1488 1469 1464 1461 1464 1468 1471 1473 1470 1472 1479 1480 1482 1482 1482 1492 1494 1497 1488 1493 1497 1499 1505 1515 1499 1509 1499 1511 1496 1488 1475 1475 1474 1476 1477 1479 1484 1488
1480 1480 1482 1480 1484 1491 1489 1475 1464 1469 1468 1467 1466 1461 1467 1469 1475 1474 1474 1471 1475 1481 1480 1482 1500 1486 1493 1496 1498 1500 1493 1511 1504 1530 1528 1498 1500 1492 1479 1476 1473 1474 1474 1479 1484
1477 1479 1478 1479 1485 1490 1476 1467 1467 1470 1470 1465 1465 1462 1457 1460 1464 1467 1465 1467 1468 1474 1482 1481 1487 1485 1490 1495 1495 1502 1504 1501 1493 1495 1513 1511 1492 1470 1476 1473 1472 1473 1472 1473 1479
1476 1471 1476 1479 1484 1478 1470 1464 1470 1467 1470 1466 1467 1462 1458 1455 1460 1460 1461 1463 1465 1470 1480 1479 1480 1489 1490 1482 1481 1479 1486 1486 1500 1505 1495 1501 1498 1465 1467 1470 1473 1473 1472 1472 1476
1476 1476 1478 1479 1469 1468 1467 1463 1470 1466 1465 1464 1463 1463 1463 1458 1464 1456 1457 1461 1466 1469 1472 1475 1484 1490 1487 1485 1486 1487 1481 1478 1475 1478 1489 1504 1492 1462 1466 1466 1466 1467 1469 1471 1473
1477 1469 1478 1478 1470 1463 1462 1464 1465 1466 1465 1465 1463 1464 1461 1459 1457 1457 1458 1465 1468 1467 1471 1471 1473 1477 1484 1479 1473 1487 1483 1479 1482 1487 1489 1486 1478 1472 1468 1465 1464 1467 1467 1468 1470
1475 1464 1467 1464 1465 1463 1458 1456 1459 1459 1465 1466 1462 1462 1458 1458 1457 1455 1454 1464 1468 1471 1472 1468 1476 1469 1466 1466 1466 1471 1475 1478 1481 1479 1485 1472 1471 1465 1462 1464 1465 1466 1466 1467 1469
1475 1472 1470 1464 1463 1461 1461 1455 1454 1455 1459 1460 1461 1455 1457 1458 1452 1456 1454 1456 1462 1469 1469 1466 1470 1468 1468 1462 1462 1467 1467 1467 1468 1471 1472 1471 1471 1463 1463 1464 1466 1463 1461 1465 1464
1476 1474 1473 1463 1459 1458 1451 1451 1453 1456 1462 1459 1458 1457 1457 1458 1465 1463 1463 1461 1459 1460 1461 1464 1466 1472 1474 1458 1461 1478 1467 1464 1463 1463 1465 1473 1462 1459 1459 1460 1461 1461 1459 1461 1461
Wind_Speed
4 5 4 4 4 4 3 2 2 2 2 2 3 5 5 5 6 5 4 4 6 7 5 6 4 3 1 2 2 2 3 8 8 5 8 10 6 7 2 12 4 2 8 16 24
4 5 5 5 4 4 4 4 3 3 4 3 4 5 5 5 6 8 4 5 7 6 9 9 4 3 0 1 0 4 2 6 4 4 4 10 6 7 5 8 5 7 11 22 25
5 4 5 5 5 5 5 5 5 4 4 4 4 5 5 4 3 3 7 8 10 9 8 5 6 2 1 2 3 1 5 2 3 2 2 7 6 3 1 6 5 11 22 23 23
5 6 5 6 7 6 6 6 5 5 5 5 4 4 5 4 2 4 6 11 12 10 8 5 4 2 2 4 3 3 1 1 3 4 7 7 2 3 1 7 1 14 23 23 22
6 6 7 6 7 8 7 6 6 6 6 6 5 4 4 5 1 6 7 14 13 11 7 4 2 1 3 5 2 2 2 2 3 7 6 7 3 2 4 6 10 20 23 22 21
6 7 7 8 8 8 9 8 6 7 6 7 6 5 3 9 7 7 6 16 12 11 7 3 1 0 4 2 1 2 2 1 6 8 7 7 3 4 8 11 15 19 20 20 21
8 8 8 8 9 9 9 9 7 6 7 7 6 5 7 4 8 9 9 17 13 9 8 3 1 4 2 3 2 2 5 7 4 6 2 6 6 7 9 13 16 17 17 17 19
9 9 8 8 9 9 10 9 7 6 5 6 6 5 6 11 12 8 12 16 15 9 8 6 2 2 2 1 5 3 4 4 5 5 2 8 6 8 11 15 16 17 18 17 18
10 10 10 9 9 8 9 9 7 5 4 5 5 5 6 8 9 11 14 16 16 9 6 6 4 3 4 7 7 6 3 3 4 5 2 10 9 2 12 16 16 19 20 19 18
11 11 11 10 9 8 8 7 7 5 3 5 5 5 8 6 11 14 16 17 16 13 7 8 8 8 6 9 4 6 4 1 2 3 9 11 14 11 10 16 18 20 21 22 21
11 12 11 11 10 7 7 6 4 3 11 6 5 2 6 6 10 14 18 19 13 15 11 14 10 11 9 1 3 1 4 5 2 2 6 10 13 11 9 16 20 21 24 25 26
12 12 10 10 10 8 8 5 5 2 6 15 9 10 5 7 10 17 21 17 18 16 15 9 14 9 7 5 5 4 6 4 1 1 6 9 13 14 15 17 21 22 25 27 24
12 12 10 9 9 8 10 9 7 2 7 7 14 16 12 10 12 26 27 24 18 18 18 17 8 6 9 9 8 7 7 5 6 3 8 8 16 13 13 11 17 22 25 26 28
14 12 9 7 5 6 6 11 8 1 5 12 10 10 15 12 11 17 27 22 13 19 18 17 7 6 16 11 6 6 4 3 4 5 5 3 6 10 2 6 8 17 22 26 28
14 13 9 5 5 3 7 11 8 2 5 8 7 5 14 18 16 16 26 22 17 17 12 15 12 14 10 9 6 3 2 3 2 8 7 8 8 1 3 7 4 5 13 22 26
14 13 10 8 9 8 11 7 9 6 7 7 8 12 16 23 9 17 26 19 18 18 16 16 9 11 18 15 8 1 7 8 7 8 11 5 5 6 2 5 9 6 4 9 20
14 14 12 9 5 14 15 8 6 9 4 8 9 12 18 17 16 17 22 23 16 17 18 17 13 8 8 8 9 11 12 10 6 8 3 3 8 9 9 9 10 10 4 3 11
14 14 12 10 14 17 14 9 10 4 8 3 5 10 16 16 19 16 20 23 25 20 13 15 16 20 11 13 12 15 12 8 5 5 5 8 6 0 8 9 8 9 5 3 8
14 11 8 11 19 22 15 13 7 4 4 7 8 12 11 15 12 16 19 23 25 22 16 16 14 15 16 14 7 10 11 5 10 14 8 6 5 12 4 2 6 7 5 5 8
11 2 4 13 22 19 11 15 5 3 3 6 11 12 15 17 15 19 18 19 25 24 22 8 9 14 14 16 10 13 2 8 11 11 10 4 4 5 3 9 9 12 4 5 9
4 4 4 12 22 17 12 15 6 7 4 4 4 7 10 14 19 20 17 4 23 25 25 18 11 13 12 17 19 12 13 12 12 6 9 9 2 4 3 8 10 13 10 4 10
1 4 4 23 12 17 14 19 3 9 7 3 3 4 8 12 17 18 18 18 19 20 23 20 10 13 16 18 19 16 19 20 11 16 10 7 12 6 5 10 12 14 12 7 6
2 4 12 7 8 10 12 16 14 9 9 5 3 2 1 8 12 14 16 8 11 19 17 17 11 13 14 13 8 15 18 15 15 15 13 8 11 6 15 16 15 15 10 7 8
3 5 7 10 10 10 17 15 17 15 11 8 7 5 5 7 6 14 13 6 13 17 9 20 16 16 12 14 16 19 18 20 20 15 14 14 16 12 15 13 14 16 11 6 9
4 1 2 8 13 10 12 9 16 16 13 9 8 13 7 7 7 9 16 10 8 5 9 16 18 17 16 17 15 15 19 20 20 20 20 19 15 13 14 15 18 17 9 5 9
4 4 2 4 6 12 8 13 15 16 8 12 12 12 13 10 4 11 11 13 9 9 10 18 14 10 18 21 20 16 18 18 20 23 23 21 22 20 24 12 16 15 9 7 10
4 4 4 4 7 12 11 10 11 6 7 6 10 7 12 5 1 5 3 3 4 10 11 12 11 7 13 16 17 15 17 18 16 17 14 17 20 17 13 13 17 22 20 12 11
Wind_Direction
340 330 330 329 326 323 322 305 293 282 266 250 229 232 238 245 257 250 254 219 208 195 174 158 162 184 22 347 23 286 181 106 99 93 120 147 137 144 117 141 123 68 138 154 159
335 325 325 321 321 319 315 302 288 280 281 267 236 239 246 246 258 262 236 196 186 188 163 159 176 171 44 336 199 274 111 68 28 80 117 165 159 154 159 153 131 116 126 147 157
326 321 318 315 313 315 309 300 288 278 276 268 257 241 246 250 264 166 201 186 164 165 171 187 171 176 206 196 118 121 72 78 34 349 151 160 180 175 278 190 159 163 150 155 161
317 316 311 308 306 306 300 294 284 278 272 267 256 241 240 214 214 187 185 177 167 160 160 142 173 223 184 124 94 206 120 312 49 134 146 155 162 212 260 3 123 161 160 160 165
315 313 306 299 300 301 297 292 288 275 264 263 248 239 225 239 215 187 173 174 175 165 172 192 259 13 76 111 116 304 26 300 189 164 159 151 164 7 119 90 128 149 160 165 169
318 310 304 298 294 294 293 294 289 279 265 256 245 227 218 232 227 196 175 181 179 172 179 165 357 79 81 114 278 354 319 315 145 165 165 200 182 226 123 131 139 157 167 173 176
314 311 306 299 295 293 291 292 288 276 264 253 248 218 236 218 216 218 204 182 178 175 184 170 110 263 171 166 10 282 155 131 130 160 143 237 235 227 149 159 156 168 175 178 183
306 305 305 300 295 293 291 291 288 278 256 243 235 209 240 231 223 204 172 175 178 182 184 193 199 238 236 210 189 218 238 195 111 185 153 227 269 180 180 182 176 176 181 184 189
302 300 301 300 296 291 289 290 285 268 241 207 205 195 221 212 207 190 170 172 170 176 184 206 217 248 228 230 190 201 70 159 167 201 249 223 283 78 191 199 196 189 187 191 190
304 300 298 294 294 290 281 279 279 274 203 171 203 210 226 195 180 174 173 175 171 179 175 195 213 228 210 215 236 137 201 99 325 135 243 251 261 269 210 218 219 204 196 195 198
303 300 300 292 290 285 265 274 267 223 211 221 196 256 158 159 170 178 170 171 188 190 201 198 217 217 209 145 109 243 282 286 276 294 273 263 280 277 245 222 226 217 206 202 201
304 302 300 291 285 273 255 218 261 228 281 227 217 221 192 177 169 181 172 177 186 197 212 188 226 224 119 179 231 260 280 283 304 124 253 293 284 284 266 236 233 223 217 211 202
307 305 305 294 284 266 240 219 237 294 259 183 208 219 201 199 202 184 184 199 195 205 200 219 205 170 205 200 233 228 294 320 300 315 242 288 267 249 257 255 232 231 227 217 211
306 306 306 302 299 247 250 221 202 174 264 159 193 198 190 193 219 196 192 191 209 214 207 230 183 228 211 226 236 259 61 282 275 278 317 332 307 295 238 262 248 239 228 223 213
303 304 303 274 243 224 230 184 184 189 254 119 146 178 176 189 132 190 198 208 220 210 200 207 224 210 210 209 197 323 321 303 315 275 310 189 276 360 178 293 325 299 250 223 218
301 299 294 280 247 218 171 158 155 222 235 156 144 174 170 202 191 150 184 208 229 221 203 241 206 238 230 229 210 221 228 230 246 270 261 113 288 266 158 343 333 357 317 228 220
301 293 282 253 209 190 174 157 201 241 126 167 185 182 195 180 181 176 182 196 192 196 210 216 200 192 231 180 197 208 234 249 229 206 277 133 282 262 324 341 325 318 329 241 219
306 293 271 235 206 180 174 202 229 226 208 122 175 185 198 183 198 189 188 197 210 210 194 202 206 212 198 222 195 212 262 270 270 273 319 154 253 35 328 322 300 282 274 221 207
317 300 255 211 186 173 192 210 209 204 160 182 168 187 195 191 200 192 207 206 203 209 221 207 221 176 210 217 233 172 229 261 297 258 250 261 239 264 145 50 40 0 272 203 186
327 226 197 189 180 177 213 228 220 249 196 213 217 206 196 191 199 196 191 210 207 203 224 199 234 182 206 229 211 268 31 206 216 264 267 250 268 257 356 358 356 2 331 217 191
326 207 255 181 164 189 212 213 218 202 231 230 188 204 236 184 203 197 192 180 206 197 214 234 228 187 173 209 212 200 230 236 292 293 280 281 314 74 300 316 340 332 337 282 205
223 215 178 153 186 205 217 219 206 187 196 213 272 264 228 195 203 201 208 215 197 197 204 216 226 226 207 223 226 223 217 228 221 234 231 292 282 276 314 346 326 319 324 304 223
306 117 161 168 209 200 215 219 231 203 205 199 233 268 195 201 199 210 204 172 181 183 198 197 224 228 223 173 199 236 241 250 258 251 270 286 272 328 317 331 338 335 313 280 230
250 178 170 212 258 264 207 216 214 216 255 252 266 249 235 197 214 199 194 148 191 213 213 206 224 227 231 226 214 211 230 231 243 246 244 243 265 286 296 306 331 352 330 256 222
232 166 340 189 214 227 235 221 217 209 227 220 229 242 225 219 196 185 191 147 167 167 203 215 225 241 237 252 235 237 221 231 239 246 255 266 266 284 315 319 318 326 338 279 219
300 315 253 277 230 217 186 213 218 211 211 210 236 217 219 239 251 168 179 182 182 175 190 215 237 263 247 241 244 232 235 235 233 237 249 256 273 281 285 316 314 309 351 282 223
329 308 286 148 205 214 206 201 210 176 195 271 224 220 215 184 326 26 349 79 133 180 188 188 228 223 246 229 238 235 243 244 247 253 258 257 256 263 284 290 313 317 319 310 263